Year,Month,Day,Hour,Minute,Value (Times are PST for temperature in C)
2012,07,22,11,01,16.40
2012,07,22,11,02,16.40
2012,07,22,11,03,16.40
2012,07,22,11,04,16.40
2012,07,22,11,05,16.40
2012,07,22,11,06,16.40
2012,07,22,11,07,16.40
2012,07,22,11,08,16.40
2012,07,22,11,09,16.40
2012,07,22,11,10,16.50
2012,07,22,11,11,16.50
2012,07,22,11,12,16.60
2012,07,22,11,13,16.60
2012,07,22,11,14,16.70
2012,07,22,11,15,16.70
2012,07,22,11,16,16.70
2012,07,22,11,17,16.70
2012,07,22,11,18,16.70
2012,07,22,11,19,16.70
2012,07,22,11,20,16.60
2012,07,22,11,21,16.50
2012,07,22,11,22,16.40
2012,07,22,11,23,16.30
2012,07,22,11,24,16.20
2012,07,22,11,25,16.10
2012,07,22,11,26,16.00
2012,07,22,11,27,15.90
2012,07,22,11,28,15.90
2012,07,22,11,29,15.90
2012,07,22,11,30,15.90
2012,07,22,11,31,15.90
2012,07,22,11,32,16.00
2012,07,22,11,33,16.00
2012,07,22,11,34,16.10
2012,07,22,11,35,16.10
2012,07,22,11,36,16.10
2012,07,22,11,37,16.10
2012,07,22,11,38,16.00
2012,07,22,11,39,16.00
2012,07,22,11,40,16.00
2012,07,22,11,41,16.10
2012,07,22,11,42,16.10
2012,07,22,11,43,16.10
2012,07,22,11,44,16.10
2012,07,22,11,45,16.10
2012,07,22,11,46,16.10
2012,07,22,11,47,16.20
2012,07,22,11,48,16.20
2012,07,22,11,49,16.30
2012,07,22,11,50,16.30
2012,07,22,11,51,16.40
2012,07,22,11,52,16.40
2012,07,22,11,53,16.50
2012,07,22,11,54,16.60
2012,07,22,11,55,16.70
2012,07,22,11,56,16.80
2012,07,22,11,57,16.80
2012,07,22,11,58,16.80
2012,07,22,11,59,16.80
2012,07,22,12,00,16.90
2012,07,22,12,01,17.10
2012,07,22,12,02,17.20
2012,07,22,12,03,17.30
2012,07,22,12,04,17.40
2012,07,22,12,05,17.50
2012,07,22,12,06,17.70
2012,07,22,12,07,17.80
2012,07,22,12,08,17.90
2012,07,22,12,09,18.00
2012,07,22,12,10,17.90
2012,07,22,12,11,17.90
2012,07,22,12,12,17.80
2012,07,22,12,13,17.80
2012,07,22,12,14,17.80
2012,07,22,12,15,17.80
2012,07,22,12,16,17.80
2012,07,22,12,17,17.80
2012,07,22,12,18,17.80
2012,07,22,12,19,17.80
2012,07,22,12,20,17.80
2012,07,22,12,21,17.80
2012,07,22,12,22,17.80
2012,07,22,12,23,17.90
2012,07,22,12,24,17.90
2012,07,22,12,25,17.80
2012,07,22,12,26,17.80
2012,07,22,12,27,17.80
2012,07,22,12,28,17.80
2012,07,22,12,29,17.80
2012,07,22,12,30,17.80
2012,07,22,12,31,17.80
2012,07,22,12,32,17.80
2012,07,22,12,33,17.80
2012,07,22,12,34,17.90
2012,07,22,12,35,17.90
2012,07,22,12,36,18.00
2012,07,22,12,37,18.10
2012,07,22,12,38,18.10
2012,07,22,12,39,18.10
2012,07,22,12,40,18.10
2012,07,22,12,41,18.10
2012,07,22,12,42,18.10
2012,07,22,12,43,18.20
2012,07,22,12,44,18.20
2012,07,22,12,45,18.20
2012,07,22,12,46,18.30
2012,07,22,12,47,18.30
2012,07,22,12,48,18.30
2012,07,22,12,49,18.30
2012,07,22,12,50,18.30
2012,07,22,12,51,18.30
2012,07,22,12,52,18.30
2012,07,22,12,53,18.20
2012,07,22,12,54,18.20
2012,07,22,12,55,18.30
2012,07,22,12,56,18.30
2012,07,22,12,57,18.30
2012,07,22,12,58,18.40
2012,07,22,12,59,18.40
2012,07,22,13,00,18.50
2012,07,22,13,01,18.50
2012,07,22,13,02,18.50
2012,07,22,13,03,18.50
2012,07,22,13,04,18.50
2012,07,22,13,05,18.40
2012,07,22,13,06,18.40
2012,07,22,13,07,18.40
2012,07,22,13,08,18.40
2012,07,22,13,09,18.40
2012,07,22,13,10,18.40
2012,07,22,13,11,18.40
2012,07,22,13,12,18.30
2012,07,22,13,13,18.30
2012,07,22,13,14,18.30
2012,07,22,13,15,18.30
2012,07,22,13,16,18.30
2012,07,22,13,17,18.30
2012,07,22,13,18,18.30
2012,07,22,13,19,18.30
2012,07,22,13,20,18.30
2012,07,22,13,21,18.40
2012,07,22,13,22,18.40
2012,07,22,13,23,18.60
2012,07,22,13,24,18.60
2012,07,22,13,25,18.70
2012,07,22,13,26,18.70
2012,07,22,13,27,18.70
2012,07,22,13,28,18.70
2012,07,22,13,29,18.60
2012,07,22,13,30,18.50
2012,07,22,13,31,18.40
2012,07,22,13,32,18.30
2012,07,22,13,33,18.30
2012,07,22,13,34,18.30
2012,07,22,13,35,18.40
2012,07,22,13,36,18.60
2012,07,22,13,37,18.60
2012,07,22,13,38,18.70
2012,07,22,13,39,18.60
2012,07,22,13,40,18.60
2012,07,22,13,41,18.50
2012,07,22,13,42,18.50
2012,07,22,13,43,18.40
2012,07,22,13,44,18.40
2012,07,22,13,45,18.40
2012,07,22,13,46,18.30
2012,07,22,13,47,18.30
2012,07,22,13,48,18.30
2012,07,22,13,49,18.20
2012,07,22,13,50,18.20
2012,07,22,13,51,18.20
2012,07,22,13,52,18.20
2012,07,22,13,53,18.20
2012,07,22,13,54,18.20
2012,07,22,13,55,18.20
2012,07,22,13,56,18.20
2012,07,22,13,57,18.20
2012,07,22,13,58,18.20
2012,07,22,13,59,18.30
2012,07,22,14,00,18.30
2012,07,22,14,01,18.20
2012,07,22,14,02,18.30
2012,07,22,14,03,18.30
2012,07,22,14,04,18.30
2012,07,22,14,05,18.30
2012,07,22,14,06,18.30
2012,07,22,14,07,18.40
2012,07,22,14,08,18.40
2012,07,22,14,09,18.40
2012,07,22,14,10,18.40
2012,07,22,14,11,18.40
2012,07,22,14,12,18.40
2012,07,22,14,13,18.40
2012,07,22,14,14,18.30
2012,07,22,14,15,18.20
2012,07,22,14,16,18.10
2012,07,22,14,17,18.00
2012,07,22,14,18,18.00
2012,07,22,14,19,17.90
2012,07,22,14,20,17.90
2012,07,22,14,21,17.90
2012,07,22,14,22,17.90
2012,07,22,14,23,17.90
2012,07,22,14,24,17.90
2012,07,22,14,25,17.80
2012,07,22,14,26,17.80
2012,07,22,14,27,17.80
2012,07,22,14,28,17.80
2012,07,22,14,29,17.80
2012,07,22,14,30,17.80
2012,07,22,14,31,17.80
2012,07,22,14,32,17.80
2012,07,22,14,33,17.80
2012,07,22,14,34,17.80
2012,07,22,14,35,17.80
2012,07,22,14,36,17.80
2012,07,22,14,37,17.70
2012,07,22,14,38,17.70
2012,07,22,14,39,17.70
2012,07,22,14,40,17.70
2012,07,22,14,41,17.70
2012,07,22,14,42,17.70
2012,07,22,14,43,17.70
2012,07,22,14,44,17.80
2012,07,22,14,45,17.80
2012,07,22,14,46,17.80
2012,07,22,14,47,17.90
2012,07,22,14,48,17.90
2012,07,22,14,49,18.00
2012,07,22,14,50,18.00
2012,07,22,14,51,18.10
2012,07,22,14,52,18.10
2012,07,22,14,53,18.10
2012,07,22,14,54,18.10
2012,07,22,14,55,18.10
2012,07,22,14,56,18.10
2012,07,22,14,57,18.00
2012,07,22,14,58,17.90
2012,07,22,14,59,17.80
2012,07,22,15,00,17.80
2012,07,22,15,01,17.80
2012,07,22,15,02,17.80
2012,07,22,15,03,17.80
2012,07,22,15,04,17.80
2012,07,22,15,05,17.90
2012,07,22,15,06,17.90
2012,07,22,15,07,17.90
2012,07,22,15,08,17.90
2012,07,22,15,09,18.00
2012,07,22,15,10,18.10
2012,07,22,15,11,18.10
2012,07,22,15,12,18.10
2012,07,22,15,13,18.10
2012,07,22,15,14,18.10
2012,07,22,15,15,18.10
2012,07,22,15,16,18.10
2012,07,22,15,17,18.10
2012,07,22,15,18,18.00
2012,07,22,15,19,18.00
2012,07,22,15,20,17.90
2012,07,22,15,21,17.90
2012,07,22,15,22,18.00
2012,07,22,15,23,18.00
2012,07,22,15,24,18.10
2012,07,22,15,25,18.30
2012,07,22,15,26,18.40
2012,07,22,15,27,18.50
2012,07,22,15,28,18.60
2012,07,22,15,29,18.60
2012,07,22,15,30,18.60
2012,07,22,15,31,18.60
2012,07,22,15,32,18.70
2012,07,22,15,33,18.60
2012,07,22,15,34,18.60
2012,07,22,15,35,18.60
2012,07,22,15,36,18.50
2012,07,22,15,37,18.50
2012,07,22,15,38,18.50
2012,07,22,15,39,18.50
2012,07,22,15,40,18.50
2012,07,22,15,41,18.40
2012,07,22,15,42,18.40
2012,07,22,15,43,18.40
2012,07,22,15,44,18.40
2012,07,22,15,45,18.40
2012,07,22,15,46,18.40
2012,07,22,15,47,18.40
2012,07,22,15,48,18.40
2012,07,22,15,49,18.40
2012,07,22,15,50,18.40
2012,07,22,15,51,18.40
2012,07,22,15,52,18.40
2012,07,22,15,53,18.40
2012,07,22,15,54,18.40
2012,07,22,15,55,18.50
2012,07,22,15,56,18.50
2012,07,22,15,57,18.50
2012,07,22,15,58,18.50
2012,07,22,15,59,18.50
2012,07,22,16,00,18.60
2012,07,22,16,01,18.60
2012,07,22,16,02,18.60
2012,07,22,16,03,18.60
2012,07,22,16,04,18.60
2012,07,22,16,05,18.60
2012,07,22,16,06,18.60
2012,07,22,16,07,18.60
2012,07,22,16,08,18.60
2012,07,22,16,09,18.60
2012,07,22,16,10,18.60
2012,07,22,16,11,18.60
2012,07,22,16,12,18.60
2012,07,22,16,13,18.60
2012,07,22,16,14,18.60
2012,07,22,16,15,18.60
2012,07,22,16,16,18.60
2012,07,22,16,17,18.60
2012,07,22,16,18,18.50
2012,07,22,16,19,18.50
2012,07,22,16,20,18.40
2012,07,22,16,21,18.40
2012,07,22,16,22,18.40
2012,07,22,16,23,18.30
2012,07,22,16,24,18.30
2012,07,22,16,25,18.30
2012,07,22,16,26,18.30
2012,07,22,16,27,18.30
2012,07,22,16,28,18.30
2012,07,22,16,29,18.30
2012,07,22,16,30,18.30
2012,07,22,16,31,18.20
2012,07,22,16,32,18.20
2012,07,22,16,33,18.20
2012,07,22,16,34,18.20
2012,07,22,16,35,18.20
2012,07,22,16,36,18.20
2012,07,22,16,37,18.20
2012,07,22,16,38,18.20
2012,07,22,16,39,18.20
2012,07,22,16,40,18.10
2012,07,22,16,41,18.20
2012,07,22,16,42,18.20
2012,07,22,16,43,18.20
2012,07,22,16,44,18.20
2012,07,22,16,45,18.20
2012,07,22,16,46,18.20
2012,07,22,16,47,18.20
2012,07,22,16,48,18.20
2012,07,22,16,49,18.20
2012,07,22,16,50,18.20
2012,07,22,16,51,18.20
2012,07,22,16,52,18.20
2012,07,22,16,53,18.20
2012,07,22,16,54,18.20
2012,07,22,16,55,18.20
2012,07,22,16,56,18.20
2012,07,22,16,57,18.20
2012,07,22,16,58,18.20
2012,07,22,16,59,18.30
2012,07,22,17,00,18.30
2012,07,22,17,01,18.40
2012,07,22,17,02,18.40
2012,07,22,17,03,18.40
2012,07,22,17,04,18.40
2012,07,22,17,05,18.50
2012,07,22,17,06,18.40
2012,07,22,17,07,18.40
2012,07,22,17,08,18.40
2012,07,22,17,09,18.30
2012,07,22,17,10,18.30
2012,07,22,17,11,18.30
2012,07,22,17,12,18.20
2012,07,22,17,13,18.20
2012,07,22,17,14,18.20
2012,07,22,17,15,18.20
2012,07,22,17,16,18.20
2012,07,22,17,17,18.20
2012,07,22,17,18,18.20
2012,07,22,17,19,18.20
2012,07,22,17,20,18.10
2012,07,22,17,21,18.10
2012,07,22,17,22,18.10
2012,07,22,17,23,18.00
2012,07,22,17,24,18.00
2012,07,22,17,25,18.00
2012,07,22,17,26,17.90
2012,07,22,17,27,17.90
2012,07,22,17,28,17.90
2012,07,22,17,29,17.90
2012,07,22,17,30,17.90
2012,07,22,17,31,17.90
2012,07,22,17,32,17.90
2012,07,22,17,33,17.90
2012,07,22,17,34,17.90
2012,07,22,17,35,17.90
2012,07,22,17,36,18.00
2012,07,22,17,37,18.00
2012,07,22,17,38,18.00
2012,07,22,17,39,18.10
2012,07,22,17,40,18.10
2012,07,22,17,41,18.10
2012,07,22,17,42,18.20
2012,07,22,17,43,18.20
2012,07,22,17,44,18.20
2012,07,22,17,45,18.30
2012,07,22,17,46,18.40
2012,07,22,17,47,18.50
2012,07,22,17,48,18.60
2012,07,22,17,49,18.70
2012,07,22,17,50,18.70
2012,07,22,17,51,18.80
2012,07,22,17,52,18.80
2012,07,22,17,53,18.70
2012,07,22,17,54,18.60
2012,07,22,17,55,18.60
2012,07,22,17,56,18.50
2012,07,22,17,57,18.40
2012,07,22,17,58,18.30
2012,07,22,17,59,18.30
2012,07,22,18,00,18.30
2012,07,22,18,01,18.20
2012,07,22,18,02,18.20
2012,07,22,18,03,18.20
2012,07,22,18,04,18.10
2012,07,22,18,05,18.10
2012,07,22,18,06,18.10
2012,07,22,18,07,18.10
2012,07,22,18,08,18.00
2012,07,22,18,09,17.90
2012,07,22,18,10,17.90
2012,07,22,18,11,17.90
2012,07,22,18,12,17.80
2012,07,22,18,13,17.80
2012,07,22,18,14,17.80
2012,07,22,18,15,17.70
2012,07,22,18,16,17.70
2012,07,22,18,17,17.70
2012,07,22,18,18,17.70
2012,07,22,18,19,17.70
2012,07,22,18,20,17.70
2012,07,22,18,21,17.70
2012,07,22,18,22,17.70
2012,07,22,18,23,17.70
2012,07,22,18,24,17.70
2012,07,22,18,25,17.60
2012,07,22,18,26,17.60
2012,07,22,18,27,17.60
2012,07,22,18,28,17.60
2012,07,22,18,29,17.60
2012,07,22,18,30,17.60
2012,07,22,18,31,17.60
2012,07,22,18,32,17.60
2012,07,22,18,33,17.60
2012,07,22,18,34,17.60
2012,07,22,18,35,17.50
2012,07,22,18,36,17.50
2012,07,22,18,37,17.50
2012,07,22,18,38,17.50
2012,07,22,18,39,17.40
2012,07,22,18,40,17.40
2012,07,22,18,41,17.40
2012,07,22,18,42,17.40
2012,07,22,18,43,17.40
2012,07,22,18,44,17.40
2012,07,22,18,45,17.40
2012,07,22,18,46,17.30
2012,07,22,18,47,17.30
2012,07,22,18,48,17.30
2012,07,22,18,49,17.30
2012,07,22,18,50,17.30
2012,07,22,18,51,17.30
2012,07,22,18,52,17.30
2012,07,22,18,53,17.30
2012,07,22,18,54,17.30
2012,07,22,18,55,17.30
2012,07,22,18,56,17.20
2012,07,22,18,57,17.20
2012,07,22,18,58,17.20
2012,07,22,18,59,17.10
2012,07,22,19,00,17.10
2012,07,22,19,01,17.20
2012,07,22,19,02,17.20
2012,07,22,19,03,17.10
2012,07,22,19,04,17.20
2012,07,22,19,05,17.20
2012,07,22,19,06,17.20
2012,07,22,19,07,17.20
2012,07,22,19,08,17.20
2012,07,22,19,09,17.30
2012,07,22,19,10,17.20
2012,07,22,19,11,17.30
2012,07,22,19,12,17.30
2012,07,22,19,13,17.30
2012,07,22,19,14,17.30
2012,07,22,19,15,17.30
2012,07,22,19,16,17.20
2012,07,22,19,17,17.30
2012,07,22,19,18,17.30
2012,07,22,19,19,17.30
2012,07,22,19,20,17.30
2012,07,22,19,21,17.30
2012,07,22,19,22,17.20
2012,07,22,19,23,17.20
2012,07,22,19,24,17.20
2012,07,22,19,25,17.10
2012,07,22,19,26,17.10
2012,07,22,19,27,17.10
2012,07,22,19,28,17.10
2012,07,22,19,29,17.10
2012,07,22,19,30,17.10
2012,07,22,19,31,17.10
2012,07,22,19,32,17.10
2012,07,22,19,33,17.10
2012,07,22,19,34,17.10
2012,07,22,19,35,17.10
2012,07,22,19,36,17.10
2012,07,22,19,37,17.10
2012,07,22,19,38,17.10
2012,07,22,19,39,17.20
2012,07,22,19,40,17.20
2012,07,22,19,41,17.20
2012,07,22,19,42,17.10
2012,07,22,19,43,17.10
2012,07,22,19,44,17.10
2012,07,22,19,45,17.10
2012,07,22,19,46,17.00
2012,07,22,19,47,17.00
2012,07,22,19,48,17.00
2012,07,22,19,49,16.90
2012,07,22,19,50,16.90
2012,07,22,19,51,16.90
2012,07,22,19,52,16.90
2012,07,22,19,53,16.90
2012,07,22,19,54,16.90
2012,07,22,19,55,16.90
2012,07,22,19,56,16.90
2012,07,22,19,57,16.90
2012,07,22,19,58,16.90
2012,07,22,19,59,16.90
2012,07,22,20,00,16.90
2012,07,22,20,01,17.00
2012,07,22,20,02,17.00
2012,07,22,20,03,17.10
2012,07,22,20,04,17.10
2012,07,22,20,05,17.10
2012,07,22,20,06,17.10
2012,07,22,20,07,17.00
2012,07,22,20,08,17.00
2012,07,22,20,09,16.90
2012,07,22,20,10,16.80
2012,07,22,20,11,16.80
2012,07,22,20,12,16.70
2012,07,22,20,13,16.70
2012,07,22,20,14,16.60
2012,07,22,20,15,16.60
2012,07,22,20,16,16.50
2012,07,22,20,17,16.50
2012,07,22,20,18,16.40
2012,07,22,20,19,16.40
2012,07,22,20,20,16.30
2012,07,22,20,21,16.30
2012,07,22,20,22,16.30
2012,07,22,20,23,16.20
2012,07,22,20,24,16.20
2012,07,22,20,25,16.20
2012,07,22,20,26,16.10
2012,07,22,20,27,16.10
2012,07,22,20,28,16.00
2012,07,22,20,29,15.90
2012,07,22,20,30,15.80
2012,07,22,20,31,15.80
2012,07,22,20,32,15.70
2012,07,22,20,33,15.60
2012,07,22,20,34,15.50
2012,07,22,20,35,15.50
2012,07,22,20,36,15.40
2012,07,22,20,37,15.30
2012,07,22,20,38,15.30
2012,07,22,20,39,15.20
2012,07,22,20,40,15.20
2012,07,22,20,41,15.20
2012,07,22,20,42,15.10
2012,07,22,20,43,15.10
2012,07,22,20,44,15.10
2012,07,22,20,45,15.00
2012,07,22,20,46,15.00
2012,07,22,20,47,14.90
2012,07,22,20,48,14.90
2012,07,22,20,49,14.90
2012,07,22,20,50,14.80
2012,07,22,20,51,14.80
2012,07,22,20,52,14.80
2012,07,22,20,53,14.80
2012,07,22,20,54,14.80
2012,07,22,20,55,14.70
2012,07,22,20,56,14.70
2012,07,22,20,57,14.70
2012,07,22,20,58,14.70
2012,07,22,20,59,14.70
2012,07,22,21,00,14.60
2012,07,22,21,01,14.60
2012,07,22,21,02,14.60
2012,07,22,21,03,14.60
2012,07,22,21,04,14.60
2012,07,22,21,05,14.60
2012,07,22,21,06,14.50
2012,07,22,21,07,14.50
2012,07,22,21,08,14.50
2012,07,22,21,09,14.50
2012,07,22,21,10,14.50
2012,07,22,21,11,14.50
2012,07,22,21,12,14.50
2012,07,22,21,13,14.50
2012,07,22,21,14,14.40
2012,07,22,21,15,14.40
2012,07,22,21,16,14.40
2012,07,22,21,17,14.40
2012,07,22,21,18,14.40
2012,07,22,21,19,14.40
2012,07,22,21,20,14.40
2012,07,22,21,21,14.40
2012,07,22,21,22,14.40
2012,07,22,21,23,14.30
2012,07,22,21,24,14.30
2012,07,22,21,25,14.30
2012,07,22,21,26,14.30
2012,07,22,21,27,14.30
2012,07,22,21,28,14.30
2012,07,22,21,29,14.30
2012,07,22,21,30,14.20
2012,07,22,21,31,14.20
2012,07,22,21,32,14.20
2012,07,22,21,33,14.20
2012,07,22,21,34,14.20
2012,07,22,21,35,14.20
2012,07,22,21,36,14.20
2012,07,22,21,37,14.10
2012,07,22,21,38,14.10
2012,07,22,21,39,14.10
2012,07,22,21,40,14.10
2012,07,22,21,41,14.10
2012,07,22,21,42,14.10
2012,07,22,21,43,14.10
2012,07,22,21,44,14.10
2012,07,22,21,45,14.10
2012,07,22,21,46,14.10
2012,07,22,21,47,14.00
2012,07,22,21,48,14.00
2012,07,22,21,49,14.00
2012,07,22,21,50,14.00
2012,07,22,21,51,14.00
2012,07,22,21,52,14.00
2012,07,22,21,53,14.00
2012,07,22,21,54,13.90
2012,07,22,21,55,13.90
2012,07,22,21,56,13.90
2012,07,22,21,57,13.90
2012,07,22,21,58,13.90
2012,07,22,21,59,13.90
2012,07,22,22,00,13.90
2012,07,22,22,01,13.90
2012,07,22,22,02,13.90
2012,07,22,22,03,13.90
2012,07,22,22,04,13.90
2012,07,22,22,05,13.80
2012,07,22,22,06,13.80
2012,07,22,22,07,13.90
2012,07,22,22,08,13.90
2012,07,22,22,09,13.80
2012,07,22,22,10,13.80
2012,07,22,22,11,13.80
2012,07,22,22,12,13.80
2012,07,22,22,13,13.80
2012,07,22,22,14,13.80
2012,07,22,22,15,13.80
2012,07,22,22,16,13.80
2012,07,22,22,17,13.80
2012,07,22,22,18,13.80
2012,07,22,22,19,13.80
2012,07,22,22,20,13.80
2012,07,22,22,21,13.80
2012,07,22,22,22,13.80
2012,07,22,22,23,13.80
2012,07,22,22,24,13.80
2012,07,22,22,25,13.80
2012,07,22,22,26,13.80
2012,07,22,22,27,13.80
2012,07,22,22,28,13.80
2012,07,22,22,29,13.80
2012,07,22,22,30,13.80
2012,07,22,22,31,13.80
2012,07,22,22,32,13.80
2012,07,22,22,33,13.80
2012,07,22,22,34,13.80
2012,07,22,22,35,13.80
2012,07,22,22,36,13.80
2012,07,22,22,37,13.80
2012,07,22,22,38,13.80
